Location: New Frontier Mobile Home Park
(32.8448°N, 116.9675°W)
Time: 20:57:47
(UTC+00:00)

Cosmos 1763 Rocket - Pass Details

Date: 14 July 2020
Orbit: 732 x 781 km, 74.0° (Epoch: 13 August)

Event Time Altitude Azimuth Distance (km) Brightness Sun altitude
Rises 10:46:14 0° 349° (NNW) 3,244 7.2 -21.8°
Reaches altitude 10° 10:48:40 10° 354° (N) 2,320 6.5 -21.4°
Maximum altitude 10:53:50 53° 71° (ENE) 946 4.2 -20.7°
Drops below altitude 10° 10:59:00 10° 148° (SSE) 2,324 5.9 -19.9°
Sets 11:01:26 0° 153° (SSE) 3,249 6.6 -19.5°
